Regional Weather Roundup
Issued by NWS

Home | Current Version | Previous Version | Graphics & Text | Print | Product List | Glossary On
Versions: 1 2 3 4 5 6 7 8 9 10 11 12 13 14 15 16 17 18 19 20 21 22 23 24 25 26 27 28 29 30 31 32 33 34 35 36 37 38 39 40 41 42 43 44 45 46 47 48 49 50
127
ASUS45 KTFX 241810
RWRMT
MONTANA REGIONAL WEATHER ROUNDUP
NATIONAL WEATHER SERVICE GREAT FALLS MT
1200 PM MDT SUN JUL 24 2016

NOTE: "FAIR" INDICATES FEW OR NO CLOUDS BELOW 12000 FEET WITH NO
SIGNIFICANT WEATHER AND/OR OBSTRUCTIONS TO VISIBILITY.

MTZ001>007-043-241900-
WEST OF THE DIVIDE

CITY           SKY/WX    TMP DP  RH WIND       PRES   REMARKS
KALISPELL      SUNNY     71  47  42 E13       30.13F
MISSOULA       SUNNY     72  41  32 CALM      30.15F
BUTTE          SUNNY     73  33  23 VRB6      30.22F
MULLAN PASS    SUNNY     64  45  49 NW3       30.26S
DEER LODGE       N/A     70  36  28 NE6       30.21F
EUREKA           N/A     75  46  35 E6        30.12F
HAMILTON         N/A     72  43  35 CALM      30.15F
LIBBY            N/A     73  46  38 W5        30.12F
PLAINS           N/A     77  46  33 CALM      30.12F
RONAN            N/A     73  47  39 CALM      30.18F
THOMPSON FALLS   N/A     74  47  38 SW1       30.15F
$$

MTZ008-052>055-241900-
SOUTHWEST MONTANA

CITY           SKY/WX    TMP DP  RH WIND       PRES   REMARKS
BOZEMAN        SUNNY     74  40  29 S6        30.18F
DILLON         SUNNY     71  38  29 CALM      30.19F
W YELLOWSTONE  SUNNY     70  30  23 NE3       30.29F
ENNIS          SUNNY     73  36  25 NW3       30.25S
THREE FORKS      N/A     74  -2   5 NE5       30.15F
TWIN BRIDGES     N/A     72  41  32 S5        30.16F
$$

MTZ009-010-012-014-046-048-049-054-241900-
EAST SLOPES AND CENTRAL MONTANA

CITY           SKY/WX    TMP DP  RH WIND       PRES   REMARKS
CUT BANK       SUNNY     75  41  29 NW8       30.09F
GREAT FALLS    SUNNY     76  35  22 SW8       30.10F
MALMSTROM AFB  SUNNY     75  39  27 W6        30.10F
HELENA         SUNNY     77  39  25 E3        30.13F
CHOTEAU          N/A     75  34  22 W5        30.13F
CONRAD           N/A     76  46  34 NW3       30.12F
$$

MTZ011-013-016-021-045-047-050-051-241900-
NORTH CENTRAL MONTANA

CITY           SKY/WX    TMP DP  RH WIND       PRES   REMARKS
HAVRE          SUNNY     79  45  29 SW14      30.04F
LEWISTOWN      SUNNY     75  41  29 VRB5      30.14F
N BAR RANCH      N/A     77  43  29 VRB6      30.16F
CHINOOK          N/A     79  48  34 SW9       30.03F
$$

MTZ017>020-022>027-061-062-241900-
NORTHEAST MONTANA

CITY           SKY/WX    TMP DP  RH WIND       PRES   REMARKS
GLASGOW        SUNNY     83  52  34 S9        30.02F
JORDAN           N/A     86  46  24 W14       30.04F
SIDNEY         SUNNY     80  52  37 N6        30.05F
WOLF POINT     MOSUNNY   83  51  33 SW9       30.04F
PLENTYWOOD       N/A     77  52  41 W5        30.04F
POPLAR           N/A     81  52  36 W6        30.05F
SCOBEY           N/A     95  68  41 W5        30.04S HX  99
$$

MTZ028>42-056>058-241900-
SOUTHCENTRAL AND SOUTHEAST MONTANA

CITY           SKY/WX    TMP DP  RH WIND       PRES   REMARKS
BAKER          SUNNY     81  46  29 CALM      30.12F
BILLINGS       SUNNY     78  43  28 SE3       30.11F
LIVINGSTON     SUNNY     78  40  25 W7        30.15F
MILES CITY     SUNNY     84  45  25 S5        30.06F
EKALAKA          N/A     81  43  26 N7        30.10
FORSYTH          N/A     84  45  24 E7        30.06F
LAUREL           N/A     79  45  29 E2        30.10F
ROUNDUP          N/A     79  40  24 SW2       30.01F
$$

REGIONAL REPORTS...DAKOTAS

CITY           SKY/WX    TMP DP  RH WIND       PRES   REMARKS
WILLISTON      SUNNY     81  49  32 N9G18     30.05F
MINOT          MOSUNNY   81  55  40 W22G30    30.00S
DICKINSON      SUNNY     78  49  35 NW8       30.08S
CROSBY           N/A     73  57  56 NW17G23   30.05S
WATFORD CITY     N/A    N/A N/A N/A MISG        N/A
BISMARCK       SUNNY     80  56  43 NW14      30.04F
GRAND FORKS    PTSUNNY   78  63  59 W14G22    29.88R
FARGO          SUNNY     81  61  50 W18G28    29.91S
BUFFALO SD       N/A     83  44  25 VRB3      30.06F
RAPID CITY     CLOUDY    78  48  34 S5        30.14F
$$

REGIONAL REPORTS...WYOMING/IDAHO/WASHINGTON

CITY           SKY/WX    TMP DP  RH WIND       PRES   REMARKS
GILLETTE       SUNNY     82  40  22 SE15      30.17F
SHERIDAN       SUNNY     86  40  19 E14       30.11F
BUFFALO WY     SUNNY     82  38  20 SE22G35   30.18F
CODY           SUNNY     75  43  31 NE6       30.19F
YELLOWSTONE LA   N/A     63  31  30 E7        30.38S
IDAHO FALLS    SUNNY     72  37  28 SW7       30.20S
SALMON         SUNNY     72  41  33 NW6       30.13F
BOISE          SUNNY     79  42  26 N5        30.09F
SPOKANE        MOSUNNY   75  45  34 VRB5      30.12F
$$

REGIONAL REPORTS...ALBERTA

CITY           SKY/WX    TMP DP  RH WIND       PRES   REMARKS
EDMONTON       SUNNY     77  52  41 SW13      29.90F
CALGARY        MOSUNNY   72  41  33 S12G18    30.03F
LETHBRIDGE     SUNNY     75  46  35 S6        30.05F
MEDICINE HAT   MOSUNNY   73  57  56 SW10      30.01F
MILK RIVER       N/A     75  43  31 NW7         N/A
ONEFOUR          N/A     79  41  25 W9G17       N/A
$$

REGIONAL REPORTS...SASKATCHEWAN

CITY           SKY/WX    TMP DP  RH WIND       PRES   REMARKS
SWIFT CURRENT  SUNNY     72  55  56 VRB2      30.03S
REGINA         MOSUNNY   72  55  56 W13       30.00S
SASKATOON      MOSUNNY   73  54  49 NW9       29.98F
CYPRESS HILLS    N/A     70  48  46 NW5         N/A
VAL MARIE        N/A     79  52  38 SW7         N/A
ROCKGLEN         N/A     75  54  46 SW8         N/A
ASSINIBOIA       N/A     75  52  43 SW8         N/A
$$




USA.gov is the U.S. government's official web portal to all federal, state and local government web resources and services.